, TX

(GMT )
Galveston 424

Weather History for KGVX - December, 2013

Change the Weather History Date:

Friday, December 27, 2013

  Actual Average Record
Temperature  
Mean Temperature 57 °F -  
Max Temperature 59 °F - - ()
Min Temperature 55 °F - - ()
Degree Days  
Heating Degree Days 8    
Growing Degree Days 7 (Base 50)    
Moisture  
Dew Point 44 °F    
Average Humidity 62    
Maximum Humidity 72    
Minimum Humidity 55    
Precipitation  
Precipitation 0.00 in - - ()
Sea Level Pressure  
Sea Level Pressure 30.33 in    
Wind  
Wind Speed 16 mph (NE)    
Max Wind Speed 21 mph    
Max Gust Speed 26 mph    
Visibility 10 miles    
Events      
T = Trace of Precipitation, MM = Missing Value Source: NWS Daily Summary

Daily Weather History Graph

Daily Weather History Graph

Search for Another Location

Airport or City:

Trip Planner

Search our weather history database for the weather conditions in past years. The results will help you decide how hot, cold, wet, or windy it might be!

Date:

Astronomy

Dec. 27, 2013 Rise Set
Actual Time 7:11 AM CST 5:31 PM CST
Civil Twilight 6:45 AM CST 5:57 PM CST
Nautical Twilight 6:15 AM CST 6:26 PM CST
Astronomical Twilight 5:46 AM CST 6:55 PM CST
Moon 1:59 AM CST (12/27) 1:28 PM CST (12/27)
Length of Visible Light 11h 12m
Length of Day
10h 20m
Waning Crescent, 28% of the Moon is Illuminated
Dec 27
Waning Crescent
Jan 1
New
Jan 7
First Quarter
Jan 15
Full
Jan 23
Last Quarter

Hourly Weather History & Observations

Time (CST) Temp. Dew Point Humidity Pressure Visibility Wind Dir Wind Speed Gust Speed Precip Events Conditions
12:15 AM 59.0 °F 44.6 °F 59% 30.34 in 10.0 mi NE 11.5 mph - N/A   Overcast
12:35 AM 59.0 °F 42.8 °F 55% 30.33 in 10.0 mi NE 13.8 mph - N/A   Overcast
12:55 AM 59.0 °F 42.8 °F 55% 30.33 in 10.0 mi NNE 12.7 mph - N/A   Overcast
1:15 AM 59.0 °F 42.8 °F 55% 30.32 in 10.0 mi NNE 15.0 mph - N/A   Overcast
1:35 AM 59.0 °F 42.8 °F 55% 30.32 in 10.0 mi NNE 16.1 mph - N/A   Mostly Cloudy
1:55 AM 59.0 °F 42.8 °F 55% 30.32 in 10.0 mi NE 17.3 mph - N/A   Overcast
2:15 AM 59.0 °F 42.8 °F 55% 30.31 in 10.0 mi NNE 15.0 mph - N/A   Overcast
2:35 AM 59.0 °F 42.8 °F 55% 30.31 in 10.0 mi NNE 17.3 mph - N/A   Overcast
2:55 AM 59.0 °F 44.6 °F 59% 30.31 in 10.0 mi NNE 15.0 mph - N/A   Overcast
3:15 AM 59.0 °F 42.8 °F 55% 30.31 in 10.0 mi NNE 17.3 mph - N/A   Overcast
3:35 AM 57.2 °F 44.6 °F 63% 30.32 in 10.0 mi NNE 15.0 mph - N/A   Overcast
3:55 AM 57.2 °F 42.8 °F 59% 30.32 in 10.0 mi NNE 16.1 mph - N/A   Overcast
4:15 AM 57.2 °F 44.6 °F 63% 30.33 in 10.0 mi North 15.0 mph - N/A   Overcast
4:35 AM 57.2 °F 44.6 °F 63% 30.34 in 10.0 mi NNE 12.7 mph - N/A   Mostly Cloudy
4:55 AM 57.2 °F 44.6 °F 63% 30.35 in 9.0 mi NNE 12.7 mph - N/A   Overcast
5:15 AM 57.2 °F 42.8 °F 59% 30.35 in 7.0 mi NNE 13.8 mph - N/A   Overcast
5:35 AM 55.4 °F 42.8 °F 63% 30.34 in 9.0 mi NNE 16.1 mph - N/A   Mostly Cloudy
5:55 AM 57.2 °F 44.6 °F 63% 30.34 in 10.0 mi NNE 18.4 mph - N/A   Overcast
6:15 AM 57.2 °F 44.6 °F 63% 30.34 in 10.0 mi NNE 17.3 mph - N/A   Overcast
6:35 AM 57.2 °F 44.6 °F 63% 30.35 in 10.0 mi NNE 18.4 mph - N/A   Overcast
6:55 AM 57.2 °F 44.6 °F 63% 30.35 in 10.0 mi NE 18.4 mph - N/A   Overcast
7:15 AM 57.2 °F 44.6 °F 63% 30.36 in 10.0 mi NE 16.1 mph - N/A   Overcast
7:35 AM 57.2 °F 44.6 °F 63% 30.37 in 10.0 mi NE 16.1 mph - N/A   Overcast
7:55 AM 57.2 °F 44.6 °F 63% 30.38 in 10.0 mi NE 16.1 mph - N/A   Overcast
8:15 AM 57.2 °F 46.4 °F 67% 30.39 in 10.0 mi NE 16.1 mph - N/A   Overcast
8:35 AM 57.2 °F 46.4 °F 67% 30.39 in 10.0 mi NE 17.3 mph - N/A   Mostly Cloudy
8:55 AM 57.2 °F 44.6 °F 63% 30.40 in 10.0 mi NE 16.1 mph - N/A   Mostly Cloudy
9:15 AM 57.2 °F 46.4 °F 67% 30.40 in 10.0 mi NE 17.3 mph - N/A   Overcast
9:35 AM 57.2 °F 44.6 °F 63% 30.40 in 10.0 mi NE 16.1 mph - N/A   Overcast
9:55 AM 57.2 °F 44.6 °F 63% 30.39 in 10.0 mi NE 16.1 mph - N/A   Overcast
10:15 AM 57.2 °F 46.4 °F 67% 30.41 in 10.0 mi NE 16.1 mph - N/A   Overcast
10:35 AM 57.2 °F 44.6 °F 63% 30.40 in 10.0 mi NE 18.4 mph - N/A   Mostly Cloudy
10:55 AM 57.2 °F 44.6 °F 63% 30.40 in 10.0 mi ENE 17.3 mph - N/A   Mostly Cloudy
11:15 AM 57.2 °F 42.8 °F 59% 30.39 in 10.0 mi NE 19.6 mph - N/A   Partly Cloudy
11:35 AM 57.2 °F 44.6 °F 63% 30.37 in 10.0 mi NE 17.3 mph - N/A   Clear
11:55 AM 57.2 °F 44.6 °F 63% 30.35 in 10.0 mi NE 19.6 mph - N/A   Clear
12:15 PM 57.2 °F 44.6 °F 63% 30.34 in 10.0 mi NE 17.3 mph - N/A   Clear
12:35 PM 57.2 °F 46.4 °F 67% 30.33 in 10.0 mi NE 19.6 mph - N/A   Clear
12:55 PM 57.2 °F 46.4 °F 67% 30.32 in 10.0 mi NE 18.4 mph - N/A   Clear
1:15 PM 57.2 °F 46.4 °F 67% 30.31 in 10.0 mi NE 17.3 mph - N/A   Clear
1:35 PM 57.2 °F 44.6 °F 63% 30.31 in 10.0 mi NE 17.3 mph - N/A   Clear
1:55 PM 57.2 °F 44.6 °F 63% 30.30 in 10.0 mi NE 18.4 mph - N/A   Clear
2:15 PM 57.2 °F 44.6 °F 63% 30.31 in 10.0 mi NE 16.1 mph - N/A   Clear
2:35 PM 57.2 °F 46.4 °F 67% 30.31 in 10.0 mi NNE 17.3 mph - N/A   Clear
2:55 PM 57.2 °F 44.6 °F 63% 30.31 in 10.0 mi NE 17.3 mph - N/A   Clear
3:15 PM 57.2 °F 46.4 °F 67% 30.31 in 10.0 mi NNE 17.3 mph 24.2 mph N/A   Clear
3:35 PM 57.2 °F 46.4 °F 67% 30.31 in 10.0 mi NNE 17.3 mph - N/A   Clear
3:55 PM 57.2 °F 46.4 °F 67% 30.29 in 10.0 mi NNE 19.6 mph - N/A   Clear
4:15 PM 55.4 °F 46.4 °F 72% 30.30 in 10.0 mi NNE 18.4 mph - N/A   Clear
4:35 PM 55.4 °F 46.4 °F 72% 30.30 in 10.0 mi NNE 18.4 mph - N/A   Partly Cloudy
4:55 PM 55.4 °F 46.4 °F 72% 30.30 in - NNE 19.6 mph - N/A   Partly Cloudy
5:15 PM 55.4 °F 46.4 °F 72% 30.30 in 10.0 mi NE 20.7 mph - N/A   Partly Cloudy
5:35 PM 55.4 °F 44.6 °F 67% 30.31 in 10.0 mi NE 16.1 mph - N/A   Clear
5:55 PM 55.4 °F 42.8 °F 63% 30.30 in 10.0 mi NE 20.7 mph - N/A   Clear
6:15 PM 55.4 °F 42.8 °F 63% 30.29 in 10.0 mi NE 20.7 mph 26.5 mph N/A   Clear
6:35 PM 55.4 °F 42.8 °F 63% 30.30 in 10.0 mi NE 18.4 mph - N/A   Clear
6:55 PM 55.4 °F 44.6 °F 67% 30.32 in 10.0 mi NE 18.4 mph - N/A   Partly Cloudy
7:15 PM 57.2 °F 44.6 °F 63% 30.32 in 10.0 mi NNE 17.3 mph - N/A   Mostly Cloudy
7:35 PM 57.2 °F 42.8 °F 59% 30.33 in 10.0 mi NNE 16.1 mph - N/A   Mostly Cloudy
7:55 PM 57.2 °F 42.8 °F 59% 30.32 in 10.0 mi NNE 19.6 mph - N/A   Partly Cloudy
8:15 PM 57.2 °F 41.0 °F 55% 30.32 in 10.0 mi NE 19.6 mph - N/A   Clear
8:35 PM 57.2 °F 42.8 °F 59% 30.33 in 10.0 mi NNE 17.3 mph - N/A   Scattered Clouds
8:55 PM 57.2 °F 41.0 °F 55% 30.33 in 10.0 mi NNE 16.1 mph 23.0 mph N/A   Partly Cloudy
9:15 PM 55.4 °F 42.8 °F 63% 30.32 in 10.0 mi NNE 17.3 mph - N/A   Clear
9:35 PM 55.4 °F 42.8 °F 63% 30.33 in 10.0 mi NNE 16.1 mph - N/A   Clear
9:55 PM 55.4 °F 42.8 °F 63% 30.30 in 10.0 mi NE 19.6 mph - N/A   Partly Cloudy
10:15 PM 55.4 °F 42.8 °F 63% 30.31 in 10.0 mi NE 15.0 mph - N/A   Clear
10:35 PM 55.4 °F 42.8 °F 63% 30.32 in 10.0 mi NE 16.1 mph - N/A   Clear
10:55 PM 55.4 °F 42.8 °F 63% 30.31 in 10.0 mi NE 15.0 mph - N/A   Clear
11:15 PM 57.2 °F 42.8 °F 59% 30.30 in 10.0 mi NE 16.1 mph - N/A   Clear
11:35 PM 57.2 °F 42.8 °F 59% 30.29 in 10.0 mi NNE 18.4 mph - N/A   Partly Cloudy
11:55 PM 57.2 °F 42.8 °F 59% 30.29 in 10.0 mi NE 16.1 mph - N/A   Clear